Wind_Speed
55 57 56 52 53 56 57 63 69 73 78 82 84 68 52 50 51 56 51 38 40 57 59 63 62 56 52 43 37 41 44 44 49 54 52 50 48 47 46 44 46 47 46 44 42 43 42
57 58 56 55 56 57 61 68 74 79 86 89 75 52 47 46 50 33 28 25 28 36 55 61 62 56 53 50 42 46 45 39 41 49 51 51 48 47 47 46 44 44 43 39 36 36 39
56 58 58 56 59 59 65 72 79 86 92 83 59 43 41 40 27 20 18 17 22 29 46 58 59 56 55 54 31 33 40 37 38 41 47 49 48 47 46 47 47 46 43 40 35 34 39
60 60 59 58 61 63 70 77 84 92 87 72 44 39 34 31 19 15 18 17 18 27 35 56 56 55 55 49 39 31 33 33 35 41 47 48 47 48 46 47 46 47 45 41 36 34 40
60 64 59 59 61 65 73 80 88 90 78 54 40 32 26 22 16 13 20 19 17 18 31 54 54 54 53 44 38 37 37 29 37 36 43 48 49 51 49 46 45 47 46 43 39 38 41
63 63 58 60 63 67 74 82 89 78 66 49 32 31 25 21 16 15 15 15 20 20 34 53 52 51 47 49 28 32 37 27 34 33 36 44 48 49 51 49 47 46 45 43 41 40 41
62 61 60 60 62 68 74 83 81 73 65 48 28 24 26 23 14 13 15 19 17 21 37 51 49 47 45 44 31 41 38 29 22 27 30 38 47 50 48 49 47 44 43 43 43 44 43
60 58 62 59 61 67 73 81 74 70 67 49 34 26 25 19 11 12 15 15 6 29 46 49 48 48 49 48 27 38 37 34 29 32 27 42 40 43 46 46 47 47 46 42 40 40 43
59 62 59 58 59 66 73 75 69 74 75 50 34 26 19 12 10 13 17 9 20 37 49 48 48 48 45 31 26 30 26 35 27 34 35 22 34 36 44 45 44 44 44 39 39 40 42
59 60 59 56 59 64 70 64 65 76 77 50 37 23 15 10 9 8 8 21 36 55 49 43 42 42 40 25 36 29 21 29 31 27 25 20 24 24 26 37 40 40 39 38 39 41 42
55 63 55 55 57 61 66 58 62 74 79 53 43 34 22 11 6 10 27 38 56 52 45 42 36 38 34 24 35 29 19 26 34 27 29 30 27 27 22 22 28 34 38 39 39 39 41
57 59 53 52 53 58 60 52 58 67 70 63 48 50 37 29 31 36 46 51 46 45 49 47 27 37 28 30 28 23 21 23 34 27 25 20 17 20 24 25 18 22 26 29 33 34 38
58 58 54 48 49 53 54 46 55 60 58 56 63 67 64 43 50 55 42 29 43 47 46 30 29 33 30 25 27 22 17 19 28 31 28 29 29 23 25 25 25 25 20 23 25 27 31
53 56 49 49 44 47 49 44 49 55 48 46 46 54 57 41 46 27 24 45 40 41 34 23 24 25 27 28 25 23 22 15 25 30 27 26 25 23 27 28 23 23 22 24 25 23 23
52 47 44 44 39 41 44 40 46 47 47 35 33 41 43 37 18 19 28 36 36 26 33 26 29 25 24 22 22 24 23 18 19 28 23 22 22 25 27 28 26 24 24 23 23 21 20
48 42 42 43 39 34 38 41 38 40 37 43 28 28 32 26 17 19 14 28 22 20 24 20 19 18 16 16 19 19 18 20 17 19 20 20 22 21 22 22 21 23 22 22 23 22 21
37 38 40 43 36 29 30 35 33 39 31 33 43 32 32 24 17 23 23 20 13 16 17 17 15 9 10 11 15 16 16 17 20 14 17 16 19 21 21 24 23 23 22 23 21 19 17
36 36 39 39 37 25 24 27 26 31 28 26 31 36 36 33 22 22 21 22 16 10 10 10 7 9 11 14 14 15 15 16 18 17 15 14 18 20 19 18 19 19 18 16 16 16 15
42 37 34 38 31 25 18 20 21 18 23 19 22 27 32 31 23 14 13 9 10 10 11 10 8 9 12 14 16 15 13 14 13 14 16 13 14 16 15 13 14 15 16 16 15 15 15
37 33 32 33 28 27 11 13 14 14 15 15 15 19 21 24 25 16 11 8 7 9 9 6 4 5 10 11 11 12 12 13 13 14 16 15 14 13 14 13 13 14 14 14 14 16 16
36 35 32 32 27 25 12 9 9 11 10 9 9 9 12 13 14 18 21 20 13 7 2 4 6 7 9 8 11 12 12 13 13 14 15 13 12 12 12 11 12 13 14 13 13 14 13
38 34 31 32 26 23 20 10 6 5 6 7 3 5 5 6 7 10 12 15 14 18 11 6 1 5 7 12 11 10 13 14 14 14 14 12 11 10 10 10 12 13 13 12 13 11 11
39 34 34 33 27 23 22 13 11 4 4 4 4 5 8 6 4 3 2 6 8 11 12 15 7 2 6 7 8 9 8 10 12 13 12 12 11 11 11 13 13 13 13 12 11 11 11
38 33 32 32 26 22 21 18 15 10 7 8 7 6 5 6 8 9 8 6 3 2 2 2 4 7 2 11 10 9 10 10 12 13 13 13 12 13 14 14 12 11 12 12 13 13 11
34 30 30 31 25 23 23 23 19 15 10 10 10 10 10 9 9 9 8 8 11 13 9 6 6 6 7 6 6 15 15 13 13 14 15 14 14 15 16 15 13 12 14 14 14 13 10
35 31 29 28 24 22 25 25 23 20 16 13 13 13 13 13 14 13 13 14 13 11 12 12 12 11 11 12 13 14 15 18 19 19 17 17 16 18 17 14 13 14 16 15 15 13 10
32 30 28 26 22 23 25 27 27 24 21 18 16 16 16 16 18 18 19 20 20 19 17 15 13 12 14 15 16 17 18 21 20 19 19 19 19 19 19 15 13 15 17 15 16 12 10
30 31 31 30 27 25 26 27 32 28 25 23 20 19 19 19 23 21 22 23 25 26 26 26 25 21 20 19 19 18 19 20 24 22 20 21 23 21 19 16 17 16 17 17 17 12 12
30 32 33 29 28 27 27 28 34 31 28 26 25 23 21 22 25 27 25 28 28 29 29 30 28 26 27 24 22 24 21 21 21 26 27 25 25 24 21 19 19 20 20 20 18 15 13
Wind_Direction
331 334 333 328 327 327 326 327 326 324 321 317 318 315 306 300 296 295 286 272 250 237 227 223 219 218 217 212 220 220 221 217 217 216 214 219 218 218 218 222 224 225 227 234 237 235 231
332 333 332 329 328 329 330 331 328 326 322 320 321 313 311 311 308 298 282 252 239 229 219 216 213 211 211 212 216 220 219 216 207 214 214 215 217 219 218 220 224 225 227 232 235 234 228
334 334 334 332 332 333 333 332 332 329 325 324 321 317 317 315 325 324 307 270 242 230 213 208 207 204 206 206 201 206 215 214 200 210 213 214 216 218 219 219 221 225 228 232 232 227 223
337 337 335 334 336 336 335 336 334 329 327 328 325 320 316 332 334 343 343 332 260 229 211 201 200 199 202 203 208 206 214 211 210 203 209 211 213 217 218 221 221 225 229 230 232 227 221
339 339 335 335 337 338 339 339 335 333 331 329 328 323 316 329 325 323 339 328 316 226 203 195 193 194 196 194 208 207 213 216 202 202 208 212 213 215 217 220 221 225 227 231 233 230 225
343 337 337 336 340 341 342 340 339 343 339 334 328 322 328 323 309 306 328 321 317 217 193 188 186 188 186 191 190 193 203 209 207 205 201 209 213 218 219 220 223 226 229 232 234 235 232
345 341 341 339 341 344 345 343 351 352 350 346 338 333 332 333 309 303 313 312 305 191 181 178 177 180 181 185 197 198 197 205 194 204 210 211 215 218 219 222 225 228 230 231 234 237 237
345 347 345 340 345 348 348 353 356 358 358 351 345 336 329 323 322 313 314 310 264 170 166 168 169 172 178 180 182 181 191 185 192 191 209 202 208 214 217 219 223 227 230 233 236 240 242
346 343 341 342 348 350 354 2 5 3 2 356 343 344 344 341 324 321 336 320 152 155 154 160 165 169 168 172 172 183 184 183 188 191 199 196 199 213 215 220 224 228 233 236 239 241 243
350 346 346 345 352 352 0 9 7 9 7 8 6 353 0 343 336 325 341 133 142 143 147 157 163 168 171 170 178 187 185 190 201 189 193 201 194 201 212 220 225 230 234 237 240 242 245
348 344 347 348 353 355 5 12 8 10 15 18 23 28 29 21 356 88 116 128 137 141 141 147 153 161 176 177 167 182 173 187 191 184 192 196 191 200 188 204 213 225 232 237 241 245 248
352 346 346 348 355 356 11 12 10 14 20 23 36 44 48 69 89 105 116 127 134 141 140 142 147 169 176 174 172 179 177 177 185 192 194 191 187 194 206 190 205 211 219 227 235 241 248
347 346 344 349 357 358 13 16 11 16 24 38 65 45 50 77 99 110 104 118 136 138 144 143 140 147 163 166 174 174 175 179 180 182 197 192 198 189 193 201 213 215 222 229 233 235 246
348 349 345 352 357 358 10 21 15 14 25 52 62 41 50 80 100 63 98 130 134 138 138 141 148 150 161 168 174 176 187 186 187 191 194 198 203 202 205 210 215 216 228 236 240 243 249
340 345 343 344 353 358 8 18 17 13 22 34 34 25 33 63 109 65 122 129 124 134 151 144 155 155 160 165 174 177 181 191 184 182 188 190 200 210 214 222 228 231 235 238 242 240 236
334 339 341 338 342 355 2 13 17 18 25 31 27 23 26 66 84 89 111 127 110 118 138 132 146 146 155 164 170 179 185 185 185 182 190 202 210 210 213 217 220 224 229 230 231 229 227
333 333 338 339 334 349 359 12 16 23 32 30 39 46 44 71 103 105 98 118 101 120 112 126 133 151 148 156 164 178 187 187 194 190 197 210 211 208 213 216 218 218 218 220 222 224 227
336 331 332 336 328 341 351 5 16 24 30 41 41 38 48 64 110 109 96 95 87 134 163 154 154 165 164 164 168 175 176 182 192 198 193 219 213 213 216 209 207 206 207 214 226 231 242
320 324 327 331 321 323 337 6 11 11 30 46 41 40 48 61 83 105 76 84 83 107 137 155 151 154 165 172 177 171 179 186 187 194 205 210 203 203 193 189 187 192 205 215 230 244 256
316 318 323 325 316 319 336 349 6 2 8 39 41 52 59 59 66 74 74 83 99 127 132 139 149 169 175 175 179 181 181 185 193 190 188 201 199 190 187 190 197 208 220 232 245 257 265
310 310 315 311 304 308 309 310 348 10 359 6 36 43 63 64 64 61 59 58 65 74 117 211 191 205 191 194 181 187 192 190 189 188 193 195 195 200 200 201 214 229 241 250 260 263 259
313 311 306 301 299 288 293 285 292 354 6 327 324 358 21 61 64 71 71 68 70 70 69 69 153 192 203 180 181 185 193 194 193 193 198 199 200 199 205 224 240 247 254 255 248 236 221
314 308 301 297 299 276 285 264 272 275 306 323 306 250 255 266 304 330 46 73 82 71 70 64 62 140 178 193 205 204 211 208 211 206 204 201 202 217 231 243 247 252 255 242 230 210 206
312 306 298 294 290 274 269 247 248 252 257 270 285 289 276 272 262 255 270 281 270 269 322 15 58 87 155 233 224 215 210 216 215 212 214 217 223 238 247 255 257 251 242 227 219 209 213
309 305 296 292 289 263 254 248 236 236 240 252 258 269 280 278 273 263 259 260 267 276 272 258 253 257 252 254 220 231 234 230 230 233 232 235 243 247 252 259 256 247 228 218 208 213 230
307 295 288 289 284 254 245 247 234 231 235 243 251 253 264 273 272 270 266 263 261 258 266 268 263 255 251 253 254 241 229 233 234 237 239 240 239 246 255 255 250 233 216 210 210 222 239
307 293 282 278 274 261 243 246 233 234 239 247 255 259 255 256 262 269 268 266 262 259 260 265 269 272 272 267 255 254 249 239 241 237 236 232 233 243 252 249 243 228 216 215 223 234 247
304 292 284 274 265 261 244 248 237 230 234 247 257 264 262 260 264 261 263 267 266 264 263 262 262 263 271 272 263 260 254 251 243 241 236 231 234 248 251 247 238 227 225 227 224 237 252
295 297 287 282 273 251 248 244 238 235 233 239 247 256 262 259 267 270 265 263 260 264 266 263 260 259 261 259 261 260 260 252 248 239 239 239 241 245 251 245 238 232 228 221 226 240 241
Height
5730 5719 5709 5699 5689 5679 5669 5657 5643 5629 5613 5596 5580 5564 5554 5545 5535 5526 5517 5517 5519 5529 5544 5561 5575 5590 5601 5613 5623 5630 5633 5640 5653 5664 5676 5687 5695 5704 5712 5720 5726 5732 5738 5742 5749 5754 5762
5725 5713 5702 5693 5682 5672 5660 5645 5629 5613 5594 5574 5558 5545 5537 5528 5518 5507 5502 5503 5506 5511 5524 5542 5560 5576 5591 5606 5612 5620 5627 5635 5647 5658 5669 5679 5689 5697 5704 5712 5719 5725 5730 5736 5741 5748 5754
5720 5707 5697 5686 5675 5663 5650 5633 5616 5597 5574 5554 5540 5531 5524 5516 5506 5500 5497 5496 5498 5502 5511 5529 5550 5565 5580 5595 5606 5611 5622 5631 5638 5652 5663 5672 5681 5690 5698 5705 5712 5717 5724 5729 5737 5742 5747
5714 5702 5691 5680 5668 5656 5641 5623 5604 5582 5557 5538 5527 5520 5514 5508 5503 5498 5495 5492 5492 5496 5504 5521 5540 5557 5573 5591 5603 5611 5619 5628 5636 5645 5655 5663 5672 5682 5691 5699 5706 5711 5718 5725 5732 5737 5742
5710 5697 5685 5673 5663 5649 5633 5614 5593 5567 5543 5526 5519 5512 5506 5503 5500 5496 5494 5492 5489 5491 5500 5515 5535 5553 5571 5590 5601 5609 5618 5624 5632 5639 5649 5657 5666 5676 5685 5693 5700 5705 5713 5720 5726 5731 5736
5705 5693 5681 5670 5658 5643 5626 5607 5583 5556 5534 5518 5511 5505 5501 5497 5495 5493 5492 5490 5488 5488 5497 5514 5534 5554 5574 5587 5596 5607 5615 5621 5629 5637 5643 5651 5661 5672 5681 5689 5696 5702 5707 5714 5720 5726 5732
5702 5691 5679 5666 5653 5639 5622 5601 5575 5552 5529 5513 5504 5500 5496 5492 5490 5489 5489 5487 5487 5489 5499 5517 5538 5557 5572 5586 5594 5601 5613 5620 5628 5635 5641 5648 5658 5669 5678 5683 5690 5696 5701 5707 5713 5719 5725
5699 5687 5675 5661 5650 5635 5618 5596 5575 5552 5529 5510 5501 5496 5493 5490 5488 5486 5485 5484 5483 5490 5503 5521 5540 5555 5571 5584 5592 5599 5611 5620 5626 5633 5635 5642 5654 5663 5669 5675 5683 5689 5695 5702 5708 5713 5718
5695 5684 5671 5659 5647 5634 5614 5593 5577 5555 5532 5509 5498 5493 5489 5487 5485 5483 5482 5481 5483 5495 5511 5530 5544 5560 5574 5585 5592 5601 5610 5618 5623 5629 5635 5643 5650 5657 5664 5671 5679 5685 5692 5698 5703 5707 5711
5693 5682 5670 5658 5646 5634 5614 5595 5582 5562 5536 5514 5500 5491 5487 5485 5484 5483 5482 5483 5491 5507 5525 5541 5554 5567 5577 5584 5594 5602 5609 5617 5621 5627 5634 5641 5649 5656 5661 5667 5675 5681 5687 5692 5697 5701 5705
5690 5679 5669 5658 5646 5634 5615 5599 5585 5567 5545 5524 5508 5496 5488 5485 5485 5485 5488 5495 5508 5522 5535 5551 5563 5573 5581 5588 5596 5603 5610 5616 5622 5629 5635 5642 5647 5653 5658 5664 5669 5676 5681 5686 5692 5695 5699
5688 5678 5668 5658 5648 5636 5619 5604 5591 5577 5557 5538 5523 5511 5501 5495 5495 5499 5506 5518 5527 5537 5545 5558 5566 5578 5585 5593 5599 5605 5610 5616 5622 5629 5634 5641 5648 5652 5656 5662 5667 5671 5676 5681 5685 5690 5694
5688 5677 5667 5658 5649 5639 5624 5611 5599 5586 5571 5556 5544 5530 5522 5517 5515 5523 5531 5536 5542 5548 5556 5565 5573 5580 5590 5596 5601 5607 5612 5616 5622 5629 5634 5638 5643 5649 5654 5659 5663 5669 5674 5678 5682 5685 5688
5686 5677 5667 5660 5651 5643 5630 5619 5608 5596 5585 5574 5562 5550 5552 5552 5548 5545 5546 5550 5555 5562 5567 5574 5580 5586 5593 5599 5604 5610 5614 5618 5623 5630 5635 5640 5645 5647 5653 5657 5660 5665 5670 5673 5677 5682 5684
5685 5676 5668 5661 5653 5645 5636 5625 5617 5607 5598 5587 5577 5568 5566 5569 5566 5565 5565 5566 5566 5571 5578 5581 5586 5594 5599 5604 5609 5611 5615 5620 5625 5629 5635 5639 5643 5647 5651 5654 5658 5663 5667 5670 5673 5676 5679
5683 5674 5668 5661 5655 5646 5640 5630 5622 5616 5610 5600 5590 5584 5579 5580 5579 5578 5579 5580 5580 5586 5588 5593 5598 5601 5604 5607 5611 5615 5618 5623 5626 5630 5635 5638 5641 5645 5648 5653 5657 5660 5663 5666 5669 5672 5675
5678 5672 5666 5660 5654 5649 5641 5634 5628 5622 5616 5608 5602 5598 5591 5586 5589 5590 5591 5592 5592 5594 5597 5600 5602 5606 5609 5611 5614 5618 5621 5625 5627 5630 5634 5637 5641 5645 5647 5650 5653 5656 5659 5662 5665 5668 5671
5674 5670 5663 5658 5654 5648 5643 5638 5632 5628 5622 5617 5611 5607 5601 5596 5599 5601 5601 5601 5602 5602 5603 5605 5607 5609 5611 5613 5616 5619 5622 5625 5628 5631 5634 5636 5638 5641 5644 5647 5650 5654 5657 5660 5662 5666 5668
5670 5665 5659 5654 5650 5647 5644 5638 5634 5631 5628 5623 5618 5616 5611 5607 5607 5608 5608 5607 5608 5608 5609 5610 5611 5612 5613 5615 5618 5619 5622 5625 5628 5630 5633 5636 5637 5640 5643 5647 5649 5652 5654 5657 5660 5662 5664
5661 5659 5654 5651 5647 5645 5641 5638 5635 5631 5630 5627 5625 5622 5620 5618 5616 5614 5612 5611 5610 5610 5612 5613 5614 5614 5615 5617 5619 5621 5623 5625 5627 5630 5632 5635 5637 5641 5643 5645 5648 5650 5652 5654 5657 5658 5659
5655 5652 5648 5644 5642 5640 5638 5637 5633 5631 5629 5628 5626 5625 5623 5622 5620 5618 5616 5615 5613 5613 5613 5613 5613 5614 5616 5618 5620 5622 5623 5626 5628 5630 5632 5635 5637 5639 5641 5644 5646 5648 5650 5651 5652 5653 5655
5647 5643 5640 5637 5636 5635 5634 5632 5632 5629 5628 5626 5625 5624 5624 5622 5622 5621 5619 5618 5617 5615 5615 5614 5614 5614 5616 5618 5620 5622 5623 5625 5627 5629 5631 5634 5636 5638 5640 5642 5644 5645 5646 5647 5649 5651 5651
5637 5634 5631 5629 5628 5628 5628 5627 5627 5626 5626 5624 5623 5621 5621 5621 5621 5621 5620 5620 5619 5618 5617 5616 5615 5615 5616 5618 5620 5621 5623 5625 5627 5629 5630 5632 5635 5637 5639 5640 5642 5644 5644 5645 5646 5648 5649
5628 5625 5622 5620 5621 5620 5622 5622 5622 5622 5621 5621 5620 5619 5618 5618 5618 5617 5618 5619 5618 5618 5618 5618 5617 5617 5618 5618 5619 5620 5622 5624 5625 5627 5629 5631 5633 5634 5636 5637 5639 5640 5640 5642 5643 5645 5647
5620 5617 5614 5612 5612 5612 5614 5615 5617 5617 5617 5617 5617 5616 5615 5615 5615 5615 5614 5614 5616 5616 5615 5616 5616 5616 5616 5616 5616 5618 5620 5622 5623 5625 5626 5628 5630 5631 5632 5634 5636 5636 5637 5639 5640 5642 5644
5611 5607 5605 5604 5603 5604 5605 5608 5610 5611 5611 5612 5612 5612 5611 5611 5611 5611 5611 5611 5611 5612 5613 5613 5613 5613 5613 5613 5614 5614 5616 5618 5620 5622 5623 5625 5626 5628 5629 5630 5632 5633 5635 5636 5637 5640 5641
5603 5599 5597 5596 5595 5596 5597 5599 5602 5603 5605 5606 5606 5607 5607 5606 5606 5606 5606 5606 5607 5607 5608 5608 5609 5609 5609 5609 5610 5610 5612 5613 5615 5617 5620 5621 5622 5624 5625 5627 5629 5629 5631 5633 5635 5639 5637
5594 5591 5588 5587 5587 5587 5589 5591 5593 5595 5597 5599 5600 5600 5601 5601 5599 5601 5600 5599 5599 5600 5601 5603 5603 5605 5605 5605 5606 5606 5607 5608 5610 5612 5614 5617 5618 5620 5621 5623 5626 5626 5627 5630 5631 5632 5633
5586 5582 5579 5579 5579 5578 5580 5582 5585 5587 5589 5591 5593 5593 5594 5594 5594 5592 5593 5592 5592 5592 5593 5593 5596 5597 5598 5600 5601 5601 5602 5602 5604 5606 5608 5612 5613 5616 5618 5619 5620 5621 5623 5624 5626 5627 5628